Overview Statistics Trail Chart Weather Telemetry Raw packets
 

This is the latest recevied weather packets stored in our database for station/object IZ8FMH-11. If no packets are shown the sender has not sent any weather packets the latest 10 day(s).

<< 1 2 3 4 5 6 >>
Time Temp. Humidity Pressure Rain* Wind** Luminosity Snow
1788525303 31.11° C 43% 1014.7 hPa - - - -
1788523504 31.11° C 40% 1014.8 hPa - - - -
1788521704 31.11° C 39% 1014.9 hPa - - - -
1788519904 30.56° C 37% 1015.1 hPa - - - -
1788518104 30.56° C 33% 1015.2 hPa - - - -
1788516304 30° C 36% 1015.5 hPa - - - -
1788514504 30° C 33% 1015.4 hPa - - - -
1788512704 29.44° C 31% 1015.5 hPa - - - -
1788510904 29.44° C 30% 1015.5 hPa - - - -
1788509104 28.89° C 31% 1015.5 hPa - - - -
1788507304 28.33° C 33% 1015.2 hPa - - - -
1788505504 27.78° C 36% 1015.1 hPa - - - -
1788503703 27.22° C 34% 1014.8 hPa - - - -
1788501903 26.67° C 33% 1014.8 hPa - - - -
1788500103 26.67° C 33% 1014.7 hPa - - - -
1788498307 26.67° C 33% 1014.5 hPa - - - -
1788496503 26.67° C 33% 1014.2 hPa - - - -
1788494703 27.22° C 34% 1014.4 hPa - - - -
1788492903 27.22° C 32% 1014.5 hPa - - - -
1788491103 27.22° C 35% 1014.5 hPa - - - -
1788489303 27.22° C 34% 1014.4 hPa - - - -
1788487503 27.22° C 33% 1014.5 hPa - - - -
1788485705 27.22° C 32% 1014.3 hPa - - - -
1788483903 27.22° C 32% 1014.1 hPa - - - -
1788482102 27.78° C 31% 1014.3 hPa - - - -

* Rain since midnight (hover to see other rain measurements)
** Current wind speed in m/s (hover to see current wind gust speed)